Flag for U.S.A. Weather past 2 weeks in Naples, Florida, U.S.A.

Now
84 °F

Passing clouds.


Feels Like: 90 °F
Forecast: 71 / 82 °F
Wind: 15 mph from South

Location: Naples Municipal


UV Index: 3 (Moderate)

Visibility: 10 mi


Pressure: 29.98 "Hg

Humidity: 70%

Dew point: 73 °F

Location of NaplesLocation

Historic Weather in Naples

°F

Naples temperature yesterday

Maximum temperature yesterday: 88 °F (at 1:53 PM)
Minimum temperature yesterday: 70 °F (at 6:53 AM)
Average temperature yesterday: 75 °F

Past Weeks' High & Low Weather Summary

 TemperatureHumidityPressure
High88 °F (Apr 17, 1:53 PM)100% (Apr 4, 5:53 AM)30.25 "Hg (Apr 4, 5:53 AM)
Low59 °F (Apr 10, 5:53 AM)39% (Apr 10, 2:53 PM)29.80 "Hg (Apr 8, 5:53 AM)
Average75 °F81%30.02 "Hg
* Reported Apr 3 1:53 PM — Apr 18 1:53 PM, Naples, Weather by CustomWeather, © 2014

Note: Actual official high and low records may vary slightly from our data, if they occured in-between our weather recording intervals... More about our weather records

Advertising

Historic Weather Conditions — Data for Previous 24 hours

 ConditionsComfort  
Time TempWeatherWind HumidityBarometerVisibility
1:53 PM
Apr 18
84 °FScattered clouds.20 mph70%30.00 "Hg10 mi
12:53 PM83 °FPartly sunny.20 mph72%30.01 "Hg10 mi
11:53 AM82 °FScattered clouds.17 mph74%30.02 "Hg10 mi
10:53 AM80 °FPassing clouds.17 mph81%30.02 "Hg10 mi
9:53 AM77 °FPassing clouds.9 mph90%30.03 "Hg10 mi
8:53 AM75 °FPassing clouds.9 mph96%30.02 "Hg10 mi
7:53 AM73 °FClear.7 mph100%30.04 "Hg9 mi
6:53 AM72 °FPassing clouds.8 mph100%30.02 "Hg10 mi
5:53 AM73 °FPassing clouds.8 mph100%29.99 "Hg10 mi
4:53 AM73 °FPassing clouds.12 mph100%29.98 "Hg10 mi
3:53 AM73 °FMostly cloudy.9 mph100%30.01 "Hg10 mi
2:53 AM73 °FPassing clouds.10 mph100%30.03 "Hg10 mi
1:53 AM73 °FPassing clouds.13 mph100%30.05 "Hg10 mi
12:53 AM74 °FOvercast.12 mph97%30.07 "Hg10 mi
11:53 PM
Apr 17
74 °FPassing clouds.12 mph100%30.08 "Hg10 mi
10:53 PM74 °FOvercast.14 mph100%30.09 "Hg10 mi
9:53 PM74 °FMostly cloudy.12 mph100%30.07 "Hg10 mi
8:53 PM73 °FPassing clouds.12 mph100%30.07 "Hg10 mi
7:53 PM73 °FPartly sunny.12 mph100%30.05 "Hg9 mi
6:53 PM73 °FScattered clouds.13 mph100%30.05 "Hg9 mi
5:53 PM72 °FThundershowers. Mostly cloudy.12 mph100%30.06 "Hg10 mi
4:53 PM71 °FThunderstorms. Mostly cloudy.13 mph100%30.06 "Hg8 mi
4:03 PM72 °FThunderstorms. Fog.21 mph100%30.06 "Hg3 mi
3:59 PM72 °FThunderstorms. Fog.20 mph100%30.05 "Hg2 mi
Weather by CustomWeather, © 2014

See weather overview